Regional Weather Roundup
Issued by NWS

Home | Current Version | Previous Version | Text Only | Print | Product List | Glossary Off
Versions: 1 2 3 4 5 6 7 8 9 10 11 12 13 14 15 16 17 18 19 20 21 22 23 24 25 26 27 28

000
ASUS45 KCYS 200210
RWRWY

WYOMING REGIONAL WEATHER ROUNDUP
NATIONAL WEATHER SERVICE CHEYENNE WY
800 PM MDT SAT MAY 19 2018

NOTE:  "FAIR" INDICATES FEW OR NO CLOUDS BELOW 12,000 FEET
WITH NO SIGNIFICANT WEATHER AND/OR OBSTRUCTIONS TO VISIBILITY.

WYZ001-200300-
YELLOWSTONE NATIONAL PARK

CITY           SKY/WX    TMP DP  RH WIND       PRES   REMARKS
LK YELLOWSTONE   N/A     45  36  70 CALM      30.18S
W YELLOWSTONE  NOT AVBL

$$
WYZ002>013-054>058-071-098>099-200300-
NORTHERN WYOMING

CITY           SKY/WX    TMP DP  RH WIND       PRES   REMARKS
JACKSON        MOCLDY    51  41  68 N10       30.11S
CODY           NOT AVBL
GREYBULL       FAIR      58  44  60 S3        30.13S
WORLAND        FAIR      55  44  66 CALM      30.14S
SHERIDAN       CLOUDY    54  40  59 SE8       30.18S
BUFFALO        CLOUDY    50  39  66 S6        30.22R
GILLETTE         N/A     51  39  63 E9        30.20R
NEWCASTLE      CLOUDY    45  43  93 SE9       30.25R

$$
WYZ014>020-022>026-101>103-200300-
CENTRAL WYOMING

CITY           SKY/WX    TMP DP  RH WIND       PRES   REMARKS
BIG PINEY      CLOUDY    52  40  63 SE10      30.14R
PINEDALE       FAIR      46  41  81 NW7       30.15R
DUBOIS         CLOUDY    43  37  81 SE13      30.19R
LANDER         CLOUDY    50  42  74 NE5       30.17R
RIVERTON       MOCLDY    48  41  76 E10       30.19R
CASPER         CLOUDY    46  43  89 NE10      30.20S
DOUGLAS        CLOUDY    45  44  97 SE12      30.23R

$$
WYZ021-027>030-104>119-200300-
SOUTHERN WYOMING

CITY           SKY/WX    TMP DP  RH WIND       PRES   REMARKS
EVANSTON       CLOUDY    53  43  68 SE3       30.09R
KEMMERER       FAIR      54  36  50 E9        30.12S
FORT BRIDGER   FAIR      58  38  46 E10       30.13R
ROCK SPRINGS   FAIR      50  38  63 NE21G26   30.14R
DIXON          FAIR      53  40  61 E6        30.12R
RAWLINS        MOCLDY    47  36  65 NE21G28   30.16R
SARATOGA       FAIR      50  34  53 SE10      30.15R
LARAMIE        CLOUDY    43  36  76 SE9       30.20R
CHEYENNE       CLOUDY    39  39 100 NE8       30.24R FOG     WCI  33
TORRINGTON     CLOUDY    42  41  96 E6        30.24R
PINE BLUFFS    CLOUDY    39  39 100 NE10      30.25R WCI  32

$$




USA.gov is the U.S. government's official web portal to all federal, state and local government web resources and services.